Theta_e
304 306 309 313 308 307 310 311 310 310 309 312 312 313 315 315 315 314 311 311 312 314 312 310 312 313 317 331 337 339 337 337 336 336 337 338 337 334 335 335 334 335 332 328 324 323 326 329 328
303 309 311 312 307 305 306 308 309 309 311 312 312 315 314 314 316 312 311 310 309 311 312 310 309 311 316 326 337 337 339 338 339 339 339 339 338 335 334 333 333 334 331 328 326 325 326 328 327
303 310 311 305 304 306 305 306 307 308 310 310 310 313 314 312 313 311 309 309 308 308 310 311 310 309 310 318 331 337 337 339 339 341 341 339 339 337 334 333 333 334 332 329 328 326 326 328 327
308 309 309 306 308 306 306 306 306 306 309 310 310 309 311 311 310 308 308 308 308 307 306 307 309 309 308 308 309 320 336 338 340 341 341 340 340 339 336 333 333 333 333 330 329 328 326 327 328
306 308 305 304 306 306 305 307 308 307 308 309 309 308 309 308 309 307 306 307 307 305 304 304 306 308 308 308 307 307 307 330 336 339 339 341 341 340 338 335 334 333 333 332 331 330 327 327 329
304 306 303 306 306 306 305 308 308 307 307 307 307 306 307 306 307 305 304 305 304 303 303 302 301 302 306 307 307 306 307 307 321 336 337 340 340 341 340 338 335 334 333 334 333 332 328 327 329
302 301 304 304 306 306 306 308 305 305 305 305 305 306 306 306 302 300 300 299 301 302 302 302 301 301 301 303 305 306 306 306 306 311 334 337 339 340 342 340 338 335 333 334 334 335 330 327 329
301 300 303 302 303 303 304 304 304 301 302 302 304 303 304 304 299 299 299 298 298 298 300 300 301 301 301 301 302 303 305 305 305 306 307 325 336 339 341 341 340 337 334 334 334 334 332 329 328
298 298 300 301 301 302 302 299 301 299 299 299 299 299 299 299 298 298 298 298 298 298 299 300 299 300 299 299 299 300 301 303 303 305 306 308 320 337 339 340 340 339 336 335 335 334 332 331 329
296 296 298 300 300 300 300 297 297 297 297 297 297 298 297 297 298 298 298 298 298 298 298 298 298 298 298 298 298 298 299 300 302 303 305 306 309 330 336 337 339 339 337 335 335 334 333 331 332
298 298 299 300 300 300 298 296 296 295 295 297 296 296 296 296 296 296 297 297 297 297 297 296 296 297 297 297 297 297 297 298 300 300 302 304 306 323 334 335 337 339 337 336 335 335 334 332 333
295 297 297 297 297 296 296 296 296 295 295 296 296 296 296 296 296 296 296 296 296 296 296 296 296 296 296 296 296 297 296 296 297 299 299 301 304 307 332 337 336 337 337 336 336 336 335 333 333
294 295 296 295 295 295 295 295 294 295 295 295 296 296 296 296 296 296 296 296 296 296 296 296 296 296 296 296 296 296 296 296 296 297 297 298 301 304 321 334 338 337 337 336 335 335 335 335 333
294 294 294 295 295 295 295 295 295 295 295 295 296 296 296 296 295 295 296 296 296 296 296 296 296 296 296 296 296 296 296 296 296 296 296 297 298 300 302 321 334 336 336 337 335 334 335 335 334
294 293 293 293 294 294 295 294 294 295 295 295 295 296 296 296 296 295 295 295 296 296 296 296 296 296 296 297 297 297 297 296 296 296 296 297 297 298 300 304 320 334 336 336 336 334 334 335 335
292 292 292 294 295 295 295 295 295 296 295 294 295 295 295 295 295 295 295 295 296 296 296 296 296 296 296 297 297 297 297 297 297 296 296 296 296 298 303 303 304 320 331 335 336 335 334 334 335
292 294 294 295 295 295 294 294 294 295 294 295 295 295 295 295 295 295 295 296 295 296 296 296 296 296 296 296 296 296 296 297 297 297 296 296 296 296 303 307 305 309 326 332 335 335 335 334 335
295 294 295 296 295 295 294 294 294 294 295 294 295 294 294 295 295 294 294 294 294 294 294 294 294 294 294 294 293 293 294 294 295 296 296 295 295 296 296 298 304 309 311 324 332 333 334 335 334
293 294 294 294 295 294 294 294 294 294 293 292 293 294 293 293 294 294 293 293 293 293 292 292 292 292 292 292 292 292 292 292 293 294 297 296 296 295 296 296 298 303 307 313 326 328 334 334 334
293 294 294 294 293 293 292 292 292 292 292 293 292 293 293 293 293 293 292 292 292 292 292 292 291 291 291 291 290 290 291 291 292 294 295 297 297 298 297 296 296 297 302 311 310 327 329 333 332
294 294 295 293 292 292 291 291 291 292 292 292 293 294 293 292 292 292 292 291 291 290 290 290 290 289 289 289 289 289 289 290 291 292 293 294 295 295 297 299 300 300 298 309 313 324 329 326 323
294 294 293 293 292 290 291 291 290 291 292 292 292 292 291 291 292 291 291 290 289 289 289 288 288 288 287 287 288 288 288 289 290 290 291 294 294 294 295 296 296 302 306 305 306 313 328 325 324
292 292 292 292 290 288 290 291 290 292 293 293 291 290 291 291 290 290 289 289 288 287 286 286 286 286 286 286 286 287 287 288 289 289 290 292 293 296 297 296 296 296 306 310 313 314 326 326 324
292 290 290 286 282 281 288 291 290 292 293 292 290 290 291 290 290 289 287 286 285 284 284 284 284 284 284 285 285 285 286 286 287 289 290 291 293 294 295 296 296 296 297 304 313 315 325 327 324
282 284 286 281 279 281 289 288 289 293 292 291 289 290 290 290 288 286 285 284 283 282 282 282 282 283 283 283 284 284 284 285 286 286 288 290 292 294 295 295 296 297 297 304 315 315 316 326 326
286 285 286 289 287 289 289 281 292 291 292 291 290 290 289 288 286 284 283 282 281 281 282 282 282 282 283 283 283 284 284 284 284 285 286 288 290 293 294 295 295 296 297 303 313 315 317 323 326
284 282 287 289 275 281 285 288 290 291 289 288 289 289 288 287 285 282 282 281 280 280 280 281 281 281 282 282 282 283 283 283 284 284 285 287 288 290 293 294 297 297 296 302 314 317 316 315 323
288 291 288 281 288 280 283 287 287 287 286 289 287 287 287 287 285 282 281 280 279 279 281 281 281 280 280 280 280 280 281 282 282 283 284 285 287 289 291 293 296 297 296 297 311 317 316 319 319
283 281 287 286 286 286 280 284 282 280 280 283 284 288 288 286 284 281 280 279 278 280 281 280 280 279 278 278 278 278 279 279 280 281 284 285 287 288 290 292 295 299 300 297 311 316 318 321 319
284 280 284 289 284 278 279 286 279 277 284 281 286 287 287 286 281 280 278 278 278 280 281 280 279 277 277 277 278 278 278 278 279 281 283 285 287 288 290 291 293 298 300 302 309 315 315 318 321
Wind_Speed
4 3 6 4 2 1 7 7 6 9 6 16 22 12 6 3 2 4 13 7 6 7 3 5 5 3 3 4 10 13 16 15 16 16 18 20 21 22 25 26 25 25 24 23 22 20 20 19 19
1 3 4 2 3 4 8 13 16 11 18 20 18 11 4 4 9 16 14 6 1 4 5 1 4 5 4 2 6 12 15 17 18 18 18 21 22 23 25 26 26 25 25 24 22 21 20 18 18
2 2 2 3 5 15 6 6 6 9 25 16 5 7 6 4 18 21 14 12 7 1 6 5 2 2 4 3 1 8 12 16 19 20 20 21 23 25 26 27 27 27 26 25 23 22 21 19 18
2 3 5 2 17 9 11 13 14 10 29 32 15 6 5 7 11 13 14 12 9 5 6 10 7 4 1 1 3 4 8 11 15 20 22 23 25 26 27 28 29 28 28 26 24 23 22 21 19
1 4 2 5 18 10 14 17 27 19 22 29 21 13 13 14 17 16 11 9 8 5 6 9 13 11 8 6 5 5 6 9 14 20 24 25 26 28 29 30 31 30 30 29 26 24 23 23 21
4 3 2 8 17 13 9 21 26 16 18 14 9 9 6 17 9 6 8 7 9 8 9 9 12 14 16 15 12 11 12 10 10 19 25 27 27 30 31 33 33 33 32 31 29 27 25 25 23
2 2 5 8 14 19 17 22 18 15 5 1 9 3 13 12 19 19 18 17 15 13 13 13 16 19 19 20 19 17 17 18 16 12 23 28 30 32 34 35 35 35 34 34 32 30 27 27 25
3 3 4 4 15 24 12 15 11 9 4 15 3 2 3 18 26 24 19 15 16 17 18 20 21 23 25 26 26 25 24 23 22 20 17 23 32 34 36 38 38 37 37 36 36 33 30 29 27
4 1 6 8 11 19 8 6 12 21 15 18 9 14 19 29 27 27 29 28 27 28 28 28 30 30 30 29 30 29 28 28 26 25 22 21 22 35 36 39 40 39 39 38 38 37 33 31 29
5 4 9 7 8 11 21 6 18 14 24 31 27 26 22 25 32 36 37 36 37 37 37 37 36 35 34 32 31 31 29 30 29 27 26 23 21 25 38 37 40 41 41 41 40 40 37 34 33
6 13 17 17 26 28 24 22 16 7 17 27 22 27 31 34 36 34 40 42 40 38 36 32 30 31 31 31 31 31 29 28 29 28 28 26 22 22 26 35 39 42 41 42 42 42 41 38 37
9 18 24 26 25 22 18 33 24 24 32 31 38 35 34 34 33 32 34 32 27 29 28 27 31 30 32 33 31 30 30 29 27 28 27 26 26 21 21 23 37 42 45 45 45 46 45 42 41
14 20 21 24 25 28 29 24 25 33 34 33 35 35 30 27 30 35 35 35 32 26 25 28 30 29 30 32 33 32 31 31 28 28 28 25 28 27 28 24 26 42 46 48 47 48 47 46 44
9 20 25 23 28 28 21 31 30 39 43 38 37 28 25 24 23 24 25 21 23 25 27 28 29 28 27 29 32 34 36 34 32 28 28 26 26 28 26 31 25 24 43 46 48 49 50 49 47
14 22 21 19 22 20 34 28 23 36 43 36 34 24 28 27 29 33 30 29 29 29 29 30 29 29 27 25 27 26 30 32 30 28 27 27 25 24 27 29 33 29 27 42 44 49 50 51 50
8 6 10 8 8 14 20 23 17 25 28 23 29 26 25 27 29 27 28 30 29 26 24 28 29 27 29 27 28 31 30 32 35 35 33 31 28 23 23 27 31 34 22 39 42 47 53 54 55
6 14 18 20 16 18 18 26 23 34 27 24 26 30 32 33 34 35 31 30 24 25 26 25 25 26 28 31 35 36 36 36 36 33 32 30 32 28 27 29 29 27 33 22 40 44 51 55 54
21 24 23 22 13 20 22 25 20 26 24 27 29 28 31 32 34 23 9 4 3 7 11 16 19 23 26 27 30 31 33 34 34 36 35 32 31 30 30 32 31 30 34 38 24 36 47 53 60
18 17 20 21 20 18 19 21 23 20 24 19 25 28 27 6 10 11 8 4 6 13 18 21 24 26 28 30 33 35 37 36 35 33 30 30 29 31 33 31 33 36 33 34 40 35 31 50 55
17 21 21 16 17 17 18 20 22 20 17 19 14 4 11 13 10 7 7 8 13 20 24 27 29 31 33 35 37 37 37 39 37 34 32 29 27 24 27 30 31 36 37 33 34 39 37 35 59
17 17 15 17 18 18 16 12 18 25 20 25 23 12 13 15 14 11 15 20 28 29 29 31 33 35 36 37 39 41 42 44 45 43 40 37 36 35 29 26 26 28 36 35 35 34 44 47 44
15 13 13 17 15 12 6 13 17 16 12 10 15 16 16 17 17 20 27 31 26 27 29 33 35 35 33 31 30 31 33 35 40 40 39 35 36 38 36 36 33 31 30 33 38 36 38 51 57
9 5 12 11 16 7 19 3 7 12 6 4 9 16 20 22 26 22 22 26 31 36 36 35 35 35 35 34 33 32 35 36 35 38 40 34 39 32 31 32 33 32 34 32 33 34 40 41 47
8 4 14 5 2 2 6 6 4 7 3 5 5 16 20 20 20 28 32 33 34 35 35 35 36 36 35 35 35 37 40 41 38 35 33 32 34 36 40 34 32 31 36 35 36 37 45 52 53
8 5 4 5 4 5 8 8 3 5 6 3 2 16 24 21 26 29 32 33 35 35 35 34 34 37 36 38 41 42 43 42 41 41 40 36 34 38 40 37 36 34 34 38 37 40 42 45 57
5 5 2 5 5 12 12 3 3 2 4 3 16 18 19 22 30 31 32 35 35 35 34 34 35 37 37 38 40 41 42 44 45 43 45 44 40 37 38 39 38 39 31 34 40 43 45 47 51
7 2 5 3 0 3 3 6 5 3 3 7 12 17 23 28 30 36 37 37 38 37 36 34 35 35 36 38 39 41 41 42 45 45 41 40 45 41 40 40 37 36 35 33 41 45 46 45 51
5 5 5 4 4 5 5 5 3 13 7 16 14 15 25 32 36 39 39 39 37 35 36 35 35 36 37 38 40 43 44 44 43 42 44 42 43 43 42 43 41 37 35 35 40 48 45 48 48
7 3 3 1 3 2 4 6 7 6 5 12 12 23 25 30 37 38 38 37 36 38 38 38 38 37 37 37 39 41 43 42 39 42 46 44 42 43 42 44 45 35 32 35 42 46 48 52 46
5 4 4 2 6 2 3 9 3 4 8 4 17 25 27 30 36 37 38 39 39 40 41 42 40 38 35 35 37 40 41 38 42 47 46 45 46 42 44 43 48 46 40 32 43 49 47 51 51
Wind_Direction
275 271 144 136 77 80 240 252 241 283 296 271 307 267 207 185 130 191 136 131 185 203 137 79 88 77 52 216 217 212 210 226 236 235 226 223 221 217 214 213 210 205 201 198 194 191 187 186 186
322 126 161 212 144 216 255 215 243 253 255 300 321 267 206 191 145 143 157 130 198 225 224 121 68 71 67 67 220 224 218 218 225 235 234 225 225 221 217 215 213 208 203 199 197 194 190 189 190
288 110 267 166 204 233 252 169 229 278 295 306 286 294 293 56 133 141 150 166 169 192 247 228 205 83 67 52 2 238 234 229 221 225 235 234 230 226 219 216 214 211 206 204 201 198 193 191 191
63 176 253 219 249 268 259 286 295 294 300 298 276 281 86 72 123 140 166 180 196 229 284 298 254 242 263 40 27 355 257 247 240 235 231 237 234 230 224 219 214 213 211 209 205 202 197 194 193
220 255 241 244 254 264 276 287 292 280 287 288 286 251 129 121 161 162 169 192 208 237 297 307 304 273 265 285 298 307 319 262 248 239 234 236 236 232 229 225 218 215 215 213 210 207 202 197 195
293 241 243 247 261 265 261 275 277 286 288 291 336 325 102 133 127 24 328 289 300 284 292 306 309 307 283 283 282 294 289 293 266 249 241 237 235 235 230 230 223 218 216 216 214 212 207 203 198
154 21 248 281 281 289 280 294 299 309 310 352 315 325 155 147 3 346 335 324 305 296 296 293 300 302 307 298 291 286 290 288 286 267 251 244 237 232 233 231 227 222 218 218 216 213 211 207 202
255 143 246 241 271 282 283 301 320 27 287 330 4 110 322 287 326 318 308 311 318 306 299 301 299 300 303 303 296 291 288 288 285 278 268 257 243 238 233 230 230 227 222 219 218 217 213 209 205
236 274 241 243 252 272 331 8 313 319 291 300 270 305 309 304 304 307 310 306 308 307 302 301 302 298 297 298 299 295 290 286 285 280 271 273 263 241 241 231 230 228 225 222 220 219 215 212 208
175 209 233 219 264 290 307 325 306 304 303 290 299 299 303 298 300 305 303 304 301 301 301 299 295 296 293 291 292 296 290 286 280 280 276 268 275 253 238 239 229 227 228 224 223 222 218 213 208
224 245 262 263 290 300 306 300 299 270 269 281 294 303 303 301 298 297 292 291 293 296 297 295 297 291 293 292 289 288 292 282 277 274 275 269 265 258 250 238 233 226 225 227 224 222 219 215 211
297 275 282 292 293 303 288 293 284 267 268 280 291 294 294 292 292 294 289 289 293 296 298 297 297 295 294 295 291 286 288 287 277 273 272 270 262 259 247 238 235 228 222 224 225 223 219 216 216
268 278 285 302 308 298 297 289 279 281 290 289 285 285 286 289 285 284 284 285 283 277 284 289 293 290 288 289 291 289 287 288 283 275 272 269 265 256 245 231 229 233 226 221 224 225 221 217 217
290 302 292 297 291 290 286 277 281 285 282 277 276 267 281 288 298 293 287 275 276 276 278 285 281 279 277 279 282 283 285 285 284 277 275 270 266 261 254 249 234 238 233 230 220 225 223 219 218
291 303 297 281 274 273 277 278 276 281 279 272 258 257 274 278 282 288 287 286 286 284 278 268 263 257 260 261 266 275 280 279 279 277 269 267 263 260 257 253 248 229 243 230 229 222 227 224 220
301 272 284 291 300 316 311 292 293 293 305 302 300 297 292 293 290 280 280 282 279 271 264 254 254 253 255 258 262 266 267 271 273 274 269 266 263 256 251 254 255 252 247 234 231 227 225 226 222
234 283 295 311 320 298 292 292 299 295 291 290 287 284 289 288 290 285 279 274 258 250 247 248 254 260 263 264 268 267 267 271 274 276 273 267 262 256 247 246 250 256 244 248 232 229 226 221 220
314 308 305 301 312 311 297 292 295 301 297 289 285 283 279 280 279 284 256 191 268 286 297 295 288 278 276 271 274 274 274 274 271 271 273 273 266 258 253 248 246 243 249 247 248 230 233 224 222
312 311 307 307 307 306 301 293 294 288 282 282 283 287 286 256 93 92 83 43 333 318 311 301 293 288 283 280 279 279 278 276 272 269 269 272 267 257 252 251 248 242 251 251 242 239 223 222 214
302 298 301 301 308 301 293 294 290 280 279 278 285 119 109 104 80 45 7 336 320 310 300 292 286 281 277 275 275 273 271 270 269 267 263 257 260 259 256 255 251 247 244 249 245 243 236 218 214
304 299 303 303 313 302 296 292 297 300 291 280 268 147 91 63 37 353 331 325 320 315 305 295 290 287 284 280 277 274 272 269 267 263 261 255 254 253 252 249 247 250 242 249 247 244 239 236 247
298 304 303 306 323 305 317 300 301 298 314 53 87 80 53 30 7 339 324 320 312 303 299 294 291 289 286 282 277 273 273 272 270 269 263 262 259 256 254 249 249 241 242 244 244 243 244 230 228
274 307 290 296 291 323 305 228 284 309 266 94 58 44 21 358 334 330 324 313 309 308 305 300 293 287 283 281 278 273 270 270 272 269 263 260 252 248 251 251 247 243 235 238 238 239 230 221 211
305 334 305 314 91 355 260 348 264 292 345 51 15 17 347 334 334 327 324 320 319 315 311 306 299 293 286 281 276 272 268 268 266 264 262 264 255 254 245 248 249 244 233 236 235 232 231 222 219
23 1 309 350 358 236 317 334 296 25 53 64 18 338 338 332 332 333 329 327 325 321 316 310 303 295 290 282 276 272 270 267 262 260 257 258 251 251 244 242 243 245 235 230 231 230 221 215 209
269 175 204 295 303 299 312 255 293 225 103 22 341 325 329 333 343 337 336 334 330 327 323 315 307 299 294 287 281 276 271 267 263 260 257 251 251 246 250 240 242 243 242 234 231 227 224 220 217
296 356 231 266 63 47 257 297 286 143 342 314 316 335 335 337 339 338 335 332 330 326 323 317 309 301 295 290 284 278 273 267 263 260 254 251 250 246 246 238 238 243 236 235 228 223 222 223 224
336 290 317 344 306 306 294 286 252 312 309 330 325 326 326 337 341 337 335 331 326 324 323 320 313 306 299 292 285 280 274 269 263 258 253 249 248 245 238 239 234 241 237 232 225 222 224 222 222
324 329 295 212 169 287 318 282 238 245 264 306 308 320 328 338 337 335 334 331 329 331 330 326 321 314 304 296 289 281 275 269 259 254 250 245 241 240 240 236 230 232 238 231 221 219 218 220 219
211 254 192 319 323 231 194 283 258 229 303 271 312 320 334 338 338 337 336 337 336 337 337 333 327 318 309 299 289 278 273 265 259 254 249 244 234 235 236 228 227 227 227 229 222 211 218 220 212